{"data":{"norad_id":56050,"epoch":"2026-09-20T02:53:16.664064Z","epoch_age_seconds":50998,"freshness":"FRESH","line1":"1 56050U 23043E   26263.12033176 -.00000041  00000+0 -14100-3 0  9995","line2":"2 56050  87.9153 209.9213 0002446  80.5360 279.6048 13.16593685171456","mean_motion":13.16593685,"eccentricity":0.0002446,"inclination_deg":87.9153,"raan_deg":209.9213,"arg_perigee_deg":80.536,"mean_anomaly_deg":279.6048,"bstar":-0.000141,"rev_number":17145,"period_min":109.37315106445,"perigee_km":1195.9057972199,"apogee_km":1199.6119254753,"semimajor_km":7575.8958613476,"source":"CELESTRAK","updated_at":"2026-09-20T09:00:44.787199Z"}}